Погода в Озёрном

Россия / Республика Бурятия     52°55′47″N   111°41′49″E
темп.,
°C
ветер,
м/с
пор.,
м/с
влажн.,
%
обл.,
%
осадки,
мм/ч
давл.,
гПа
погр.,
м
21 июня, пн
пн2123:00+10всв118939 0.0 101011
02:00+8ссв1193100 0.0 101111
05:00+8св119474 0.0 101215
08:00+15вюв226921 0.0 1011498
11:00+19юв335136 0.0 10091627
14:00+21юв234198 0.0 10072119
17:00+19в355482 0.0 1008422
20:00+16вюв37701 0.0 1008215
22 июня, вт
вт2223:00+11св119072 0.0 101010
02:00+10св229381 0.0 101020
05:00+10св22925 0.0 101024
08:00+17вюв236512 0.0 1009471
11:00+22ююв23464 0.0 10071198
14:00+26ююз233530 0.0 10052692
17:00+26ю123170 0.0 10042363
20:00+15ссз499190 1.3 1009301
23 июня, ср
ср2323:00+13з118512 0.3 100810
02:00+11с2292100 0.3 100921
05:00+11ссв229112 0.0 100919
08:00+17в127235 0.2 1008331
11:00+24юв224613 0.0 1006982
14:00+27ююз223553 0.0 10042260
17:00+27ю233138 0.0 10032372
20:00+15ссз5895100 5.9 1007314
24 июня, чт
чт2423:00+13с1195100 4.8 100814
02:00+12з119494 5.8 100712
05:00+13ссв229382 0.0 100738
08:00+18юз117767 0.1 1006318
11:00+23ююв225333 0.6 10031069
14:00+24сз1250100 2.6 1002932
17:00+24ссз234891 0.0 1000656
20:00+15ю2495100 2.0 1003175
25 июня, пт
пт2523:00+13ссв229797 2.1 100537
02:00+12зюз019772 4.1 100510
05:00+12сз019758 0.4 100511
08:00+17з128349 0.4 1005469
11:00+21зюз2261100 0.0 10041246
14:00+24з3447100 0.1 10031834
17:00+25зсз454262 0.0 10022033
20:00+18сз396091 0.0 1004234